Regional Weather Roundup
Issued by NWS San Diego, CA

Home | Current Version | Previous Version | Text Only | Print | Product List | Glossary On
Versions: 1 2 3 4 5 6 7 8 9 10 11 12 13 14 15 16 17 18 19 20 21 22 23 24 25 26 27 28
000
ASUS46 KSGX 281211
RWRSGX

SAN DIEGO HOURLY WEATHER ROUNDUP
NATIONAL WEATHER SERVICE SAN DIEGO CA
500 AM PDT SAT MAY 28 2016

NOTE: "FAIR" INDICATES FEW OR NO CLOUDS BELOW 12,000 FEET WITH NO
SIGNIFICANT WEATHER AND/OR OBSTRUCTIONS TO VISIBILITY.

CAZ042-043-060-061-PZZ750-775-281300-

GREATER SAN DIEGO AREA

CITY           SKY/WX    TMP DP  RH WIND       PRES   REMARKS
LINDBERGH FLD  CLOUDY    63  55  75 W5        29.86R
POINT LOMA       N/A     60  55  83 NW2         N/A
NATIONAL CITY    N/A     63  58  84 SW3       29.86R
IMPERIAL BEACH CLOUDY    63  55  75 S5        29.86R
BROWN FIELD    CLOUDY    59  55  87 CALM      29.85R
MIRAMAR MCAS   CLOUDY    64  54  69 SW3       29.85R
MONTGOMERY FLD CLOUDY    61  54  77 W3        29.85R

$$

NORTH SAN DIEGO COUNTY

CITY           SKY/WX    TMP DP  RH WIND       PRES   REMARKS
CAMP PENDLETON CLOUDY    61  56  83 CALM      29.83S
OCEANSIDE AP   CLOUDY    61  55  81 W3        29.83S
OCEANSIDE HBR    N/A     62  58  87 W2        29.86S
VISTA            N/A     60  56  85 CALM      29.82R
CARLSBAD       CLOUDY    61  56  83 W5        29.83S
DEL MAR          N/A     61  57  86 CALM      29.87R
LA JOLLA SCRIP   N/A     60  57  88 SW3       29.84R
ESCONDIDO        N/A     60  56  85 CALM      29.85R

$$

EAST SAN DIEGO COUNTY

CITY           SKY/WX    TMP DP  RH WIND       PRES   REMARKS
RAMONA         CLOUDY    54  53  97 SE3       29.85R FOG
LA MESA          N/A     59  55  88 CALM      29.78R
CAMPO            N/A     47  43  86 N6        29.83S

$$

ORANGE COUNTY AND THE LOS ANGELES BASIN

CITY           SKY/WX    TMP DP  RH WIND       PRES   REMARKS
JOHN WAYNE AP  CLOUDY    61  55  81 SE5       29.84R
HUNTINGTON BCH   N/A     61  58  88 CALM      29.86S
LOS ALAMITOS   CLOUDY    62  56  82 W1        29.84R
FULLERTON      CLOUDY    62  55  77 SW6       29.83S
LONG BEACH     CLOUDY    61  56  83 CALM      29.84S
L.A. AP        CLOUDY    60  55  83 W6        29.84S
L.A. DOWNTOWN  CLOUDY    62  54  74 CALM      29.83S

$$

THE INLAND EMPIRE

CITY           SKY/WX    TMP DP  RH WIND       PRES   REMARKS
CORONA         MOCLDY    51  49  92 CALM      29.84S FOG
CHINO          CLOUDY    59  55  87 NW3       29.85S FOG
ONTARIO        CLOUDY    57  54  89 W7        29.84R FOG
RIVERSIDE AP   CLOUDY    58  54  86 W3        29.84R
MARCH ARB      CLEAR     53  53 100 NW5       29.83S
FRENCH VALLEY  FAIR      52  48  87 S5        29.84R

$$

SAN BERNARDINO AND RIVERSIDE COUNTY MOUNTAINS

CITY           SKY/WX    TMP DP  RH WIND       PRES   REMARKS
BIG BEAR AP    CLEAR     34  30  86 CALM      30.03S
PINE COVE        N/A     52  38  59 CALM      29.77F

$$

SOUTHERN DESERT INCLUDING THE COACHELLA VALLEY

CITY           SKY/WX    TMP DP  RH WIND       PRES   REMARKS
PALM SPRINGS   CLEAR     71  51  49 NW3       29.75S
THOUSAND PALMS   N/A     73  47  40 W3        29.70F
PALM DESERT      N/A     69  54  58 CALM      31.16S
THERMAL        CLEAR     66  51  58 N3        29.70R
BLYTHE         CLEAR     67  38  34 CALM      29.73S
IMPERIAL AP    CLEAR     68  45  43 S3        29.71R
EL CENTRO NAS  CLEAR     64  41  42 S5        29.73R
YUMA AZ        CLEAR     71  32  23 NE3       29.74

$$

UPPER DESERT

CITY           SKY/WX    TMP DP  RH WIND       PRES   REMARKS
VICTORVILLE AP CLEAR     59  39  47 S5        29.86S
PALMDALE       PTCLDY    59  35  40 S6        29.84S
LANCASTER      PTCLDY    62  42  47 CALM      29.83R
EDWARDS AFB    PTCLDY    57  37  47 SW5       29.80S
DAGGETT        CLEAR     66  38  35 W9        29.81S
29 PALMS N     CLEAR     64  35  34 NW6       29.88S
NEEDLES        CLEAR     73  36  25 S3        29.76R

$$

REGIONAL REPORTS

CITY           SKY/WX    TMP DP  RH WIND       PRES   REMARKS
SANTA BARBARA  CLOUDY    58  53  84 SE7       29.83S
SANDBERG       PTCLDY    60  41  49 N10       29.93S
LAS VEGAS NV   PTCLDY    71  33  24 NW3       29.77R
PHOENIX AZ     CLEAR     70  36  28 E7        29.77S
TIJUANA        CLOUDY    59  52  77 CALM      29.87S

$$

OFFSHORE ISLANDS

CITY           SKY/WX    TMP DP  RH WIND       PRES   REMARKS
CATALINA ARPT  FOG       52  52 100 W3        29.85S VSB 1/4
SAN NICOLAS IS CLOUDY   N/A N/A N/A W3        29.85R

$$

MARINE AND OFFSHORE BUOY REPORTS

STATION/POSITION SKY/WX   TEMP    WIND        PRES    SWELL
                          AIR SEA DIR/SP/G            HT/PER/DIR
                          (F)     (DEG/KT/KT) (MB)    (FT/S/D)
TANNER BANKS               57 60  280/  6/ 10 1010.9R   7/330/10
S CLEMENTE BASIN           58 63  270/  6/  8 1010.6R   3/190/15
SAN NICOLAS IS.               58                N/A     3/320/11
SO. S. ROSA ISLA           54 58  260/  4/  6 1010.3R   7/310/10
W. S. BARBARA CH           54 54  140/  6/  8 1009.6R   5/330/11
M. S. BARBARA CH           55 60  330/  4/  4 1010.9F
S. MONICA BASIN            59 63  150/  6/  8 1010.7R   2/150/16
S PEDRO CHANNEL               62                N/A     2/170/17
OCEANSIDE OFFSHR              65                N/A     2/200/15
TORREY PINES OTR              65                N/A     2/180/15
LA JOLLA 1                 62 67  240/  5/  7 1010.3R
SAN DIEGO BAY                 69              1010.6R
POINT LOMA SOUTH              66                N/A     2/200/17

$$





USA.gov is the U.S. government's official web portal to all federal, state and local government web resources and services.